DELTA 1 DEB

Satellite information

Favourite Embed

Satellite Type and Status

DEBRISIN ORBIT

Key statistics

Satellite DELTA 1 DEB at a glance.

Uptime

17353

Days in orbit

Revolutions

≈ 14.4

Per day

Orbit

SSO

Sun Synchronous Orbit

Inclination

98.6

Latest

Satellite identification and parameters

Extended collection of information and parameters for DELTA 1 DEB.

Object identification

Identified? True

Debris? True

Object name: DELTA 1 DEB

International designator: 1978-026GP

Object number (NORAD): 14914

Object ID (CCSDS): 14914

Country: UNITED STATES OF AMERICA (US)

Current information (Y/N): Y

RCS size: SMALL

Orbital parameters

Period: 99.87 minutes

Inclination: 98.5845 deg

SMA: 7130.438 km

Apoapsis: 783.215 km

Periapsis: 721.39 km

RAAN: 278.8432 deg

Eccentricy: 0.00433528

Argument of periapsis: 41.5813 deg

Mean anomaly: 135.9254 deg

Mean motion: 14.41877797 rev/day

Mean motion (dot): 0.00002096 rev/day2

B* drag term: 0.00064697609 1/REarth

Two-line elements (TLE)

Creation date: Sept. 7, 2025, 3:09 a.m.

Reference frame: TEME

Reference center: EARTH

Epoch: Sept. 6, 2025, 7:46 p.m. UTC

TLE line 0: 0 DELTA 1 DEB

TLE line 1: 1 14914U 78026GP 25249.82398749 .00002096 00000-0 64698-3 0 9997

TLE line 2: 2 14914 98.5845 278.8432 0043353 41.5813 135.9254 14.41877797277206

Live tracking on map

Real-time ground track for satellite DELTA 1 DEB.

In-orbit conjunctions

A list of the most updated potential collisions computed for object DELTA 1 DEB.

Target Orbit TCA Probability of collision Miss distance Type
YAOGAN 4 DEB SSO 2024-11-15 10:22:11 0.0003521031 965.0 (m) DEBRIS
COSMOS 858 LEO 2024-10-07 04:14:28 0.0001487904 401.0 (m) PAYLOAD

Associated space launch

Earth observation satellite

DELTA 1 DEB was lifted into orbit during the mission ‘Delta 2910 | Landsat 3’, on board a Delta 2910 space rocket.

The launch took place on March 5, 1978, 5:54 p.m. from Space Launch Complex 2W.

For more information about the launch, click the button.

Launch to space Delta 2910 | Landsat 3
Delta 2910 | Landsat 3

Agency: N/A

Status: Launch Successful

Launch date: March 5, 1978, 5:54 p.m. UTC

Rocket: Delta 2910

Launch pad: Space Launch Complex 2W

Location: Vandenberg SFB, CA, USA

...

Latest news about this satellite

There are no fresh news available about this satellite. Check back as we update our databases every day.


Newsletter sign-up

Weekly statistics, charts and insights to help you stay on top of the space industry.